ASA312 KOMA-KSEA

Flight info

Callsign ASA312
Flight time N/A
Altitude 36000
Route ONL KD90U HLN MLP GLASR3
Aircraft B739/M-SDE2E3FGHIRWXY/LB1

Departure

Time N/A
Airport Eppley Airfield (KOMA)

Arrival

Time 2026-05-05 03:14
Airport Seattle–Tacoma International Airport (KSEA)
Time Latitude Longitude Altitude Speed Heading
2026-05-05 02:28 47.50706 -116.48746 35847 ft 435 kts 285°
2026-05-05 02:28 47.51203 -116.57692 35853 ft 435 kts 285°
2026-05-05 02:29 47.51689 -116.66608 35883 ft 435 kts 285°
2026-05-05 02:29 47.52167 -116.75514 35885 ft 433 kts 285°
2026-05-05 02:30 47.52640 -116.84412 35839 ft 434 kts 285°
2026-05-05 02:30 47.53103 -116.93290 35873 ft 432 kts 285°
2026-05-05 02:31 47.53562 -117.02168 35876 ft 433 kts 285°
2026-05-05 02:31 47.54014 -117.11063 35860 ft 434 kts 284°
2026-05-05 02:32 47.54457 -117.19955 35864 ft 433 kts 284°
2026-05-05 02:32 47.54892 -117.28805 35846 ft 434 kts 285°
2026-05-05 02:33 47.55325 -117.37737 35838 ft 435 kts 284°
2026-05-05 02:33 47.55751 -117.46686 35856 ft 437 kts 284°
2026-05-05 02:34 47.56173 -117.55680 35866 ft 439 kts 284°
2026-05-05 02:34 47.56622 -117.64704 35851 ft 438 kts 286°
2026-05-05 02:35 47.57434 -117.73619 35855 ft 435 kts 289°
2026-05-05 02:35 47.58351 -117.82479 35855 ft 435 kts 289°
2026-05-05 02:36 47.59229 -117.91304 35844 ft 436 kts 288°
2026-05-05 02:36 47.60078 -118.00199 35840 ft 436 kts 288°
2026-05-05 02:37 47.60908 -118.09093 35815 ft 436 kts 288°
2026-05-05 02:37 47.61731 -118.18000 35806 ft 435 kts 288°
2026-05-05 02:38 47.62546 -118.26890 35806 ft 435 kts 288°
2026-05-05 02:38 47.63353 -118.35772 35804 ft 434 kts 288°
2026-05-05 02:39 47.64152 -118.44632 35803 ft 433 kts 287°
2026-05-05 02:39 47.64946 -118.53502 35799 ft 434 kts 287°
2026-05-05 02:40 47.65730 -118.62338 35776 ft 436 kts 287°
2026-05-05 02:40 47.66515 -118.71272 35782 ft 438 kts 287°
2026-05-05 02:41 47.67297 -118.80256 35792 ft 440 kts 287°
2026-05-05 02:41 47.68075 -118.89284 35787 ft 442 kts 287°
2026-05-05 02:42 47.68847 -118.98342 35777 ft 443 kts 286°
2026-05-05 02:42 47.69616 -119.07437 35783 ft 444 kts 286°
2026-05-05 02:43 47.70378 -119.16550 35772 ft 445 kts 286°
2026-05-05 02:43 47.71135 -119.25681 35788 ft 446 kts 286°
2026-05-05 02:44 47.71884 -119.34814 35790 ft 445 kts 286°
2026-05-05 02:44 47.72626 -119.43932 35743 ft 444 kts 286°
2026-05-05 02:45 47.73356 -119.53006 35766 ft 441 kts 285°
2026-05-05 02:45 47.73718 -119.57538 35369 ft 442 kts 285°
2026-05-05 02:45 47.74072 -119.62042 34948 ft 436 kts 285°
2026-05-05 02:45 47.74418 -119.66475 34472 ft 428 kts 285°
2026-05-05 02:46 47.74757 -119.70836 34015 ft 421 kts 285°
2026-05-05 02:46 47.75091 -119.75127 33514 ft 415 kts 285°
2026-05-05 02:46 47.75421 -119.79360 33008 ft 409 kts 285°
2026-05-05 02:46 47.75740 -119.83472 32547 ft 402 kts 285°
2026-05-05 02:47 47.76057 -119.87567 32083 ft 396 kts 286°
2026-05-05 02:47 47.76367 -119.91606 31665 ft 389 kts 286°
2026-05-05 02:47 47.76672 -119.95575 31227 ft 384 kts 285°
2026-05-05 02:47 47.76972 -119.99490 30810 ft 380 kts 285°
2026-05-05 02:48 47.77272 -120.03394 30411 ft 382 kts 285°
2026-05-05 02:48 47.77579 -120.07371 29984 ft 393 kts 284°
2026-05-05 02:48 47.77890 -120.11466 29524 ft 401 kts 284°
2026-05-05 02:48 47.78193 -120.15576 29018 ft 400 kts 284°
2026-05-05 02:49 47.78495 -120.19685 28515 ft 397 kts 284°
2026-05-05 02:49 47.78790 -120.23744 28059 ft 393 kts 284°
2026-05-05 02:49 47.79079 -120.27756 27641 ft 387 kts 284°
2026-05-05 02:49 47.79368 -120.31715 27196 ft 384 kts 284°
2026-05-05 02:50 47.79655 -120.35644 26765 ft 380 kts 284°
2026-05-05 02:50 47.79937 -120.39523 26313 ft 375 kts 284°
2026-05-05 02:50 47.80212 -120.43345 25986 ft 369 kts 283°
2026-05-05 02:50 47.80485 -120.47131 25537 ft 367 kts 283°
2026-05-05 02:51 47.80756 -120.50892 25151 ft 365 kts 283°
2026-05-05 02:51 47.81024 -120.54640 24739 ft 364 kts 283°
2026-05-05 02:51 47.81289 -120.58372 24339 ft 362 kts 283°
2026-05-05 02:51 47.81552 -120.62094 23929 ft 360 kts 283°
2026-05-05 02:52 47.81811 -120.65789 23547 ft 358 kts 283°
2026-05-05 02:52 47.82069 -120.69477 23067 ft 358 kts 283°
2026-05-05 02:52 47.82326 -120.73147 22632 ft 356 kts 283°
2026-05-05 02:52 47.82577 -120.76794 22236 ft 353 kts 282°
2026-05-05 02:53 47.82825 -120.80406 21858 ft 349 kts 282°
2026-05-05 02:53 47.83068 -120.83975 21535 ft 344 kts 282°
2026-05-05 02:53 47.83308 -120.87505 21196 ft 340 kts 282°
2026-05-05 02:53 47.83544 -120.90991 20840 ft 337 kts 282°
2026-05-05 02:54 47.83700 -120.93289 20589 ft 337 kts 282°
2026-05-05 02:54 47.83933 -120.96747 20218 ft 336 kts 281°
2026-05-05 02:54 47.84166 -121.00197 19809 ft 334 kts 281°
2026-05-05 02:54 47.84395 -121.03632 19459 ft 333 kts 281°
2026-05-05 02:55 47.84623 -121.07060 19085 ft 332 kts 281°
2026-05-05 02:55 47.84850 -121.10473 18704 ft 331 kts 281°
2026-05-05 02:55 47.85075 -121.13885 18301 ft 330 kts 280°
2026-05-05 02:55 47.85296 -121.17267 17899 ft 327 kts 279°
2026-05-05 02:56 47.85516 -121.20635 17467 ft 325 kts 279°
2026-05-05 02:56 47.85731 -121.23967 17075 ft 323 kts 279°
2026-05-05 02:56 47.85943 -121.27265 16680 ft 316 kts 279°
2026-05-05 02:56 47.86150 -121.30484 16390 ft 311 kts 279°
2026-05-05 02:57 47.86356 -121.33694 16006 ft 311 kts 279°
2026-05-05 02:57 47.86561 -121.36890 15621 ft 310 kts 278°
2026-05-05 02:57 47.86764 -121.40086 15273 ft 310 kts 278°
2026-05-05 02:57 47.86967 -121.43283 14895 ft 310 kts 278°
2026-05-05 02:58 47.87168 -121.46471 14538 ft 310 kts 278°
2026-05-05 02:58 47.87365 -121.49622 14139 ft 308 kts 278°
2026-05-05 02:58 47.87563 -121.52781 13822 ft 305 kts 277°
2026-05-05 02:58 47.87759 -121.55939 13385 ft 307 kts 278°
2026-05-05 02:59 47.87951 -121.59096 12971 ft 305 kts 278°
2026-05-05 02:59 47.88146 -121.62237 12619 ft 304 kts 277°
2026-05-05 02:59 47.88340 -121.65374 12247 ft 304 kts 277°
2026-05-05 02:59 47.88410 -121.68511 12050 ft 302 kts 263°
2026-05-05 03:00 47.87675 -121.71422 11914 ft 305 kts 239°
2026-05-05 03:00 47.86243 -121.73802 11563 ft 313 kts 224°
2026-05-05 03:00 47.84613 -121.75979 11202 ft 316 kts 223°
2026-05-05 03:00 47.82964 -121.78144 10843 ft 315 kts 223°
2026-05-05 03:01 47.81335 -121.80306 10468 ft 311 kts 223°
2026-05-05 03:01 47.79741 -121.82448 10098 ft 307 kts 223°
2026-05-05 03:01 47.78230 -121.84652 9734 ft 302 kts 234°
2026-05-05 03:01 47.77345 -121.87419 9337 ft 295 kts 259°
2026-05-05 03:02 47.76989 -121.90391 8962 ft 289 kts 264°
2026-05-05 03:02 47.76720 -121.93313 8615 ft 281 kts 264°
2026-05-05 03:02 47.76478 -121.96140 8349 ft 270 kts 265°
2026-05-05 03:02 47.76243 -121.98865 8080 ft 262 kts 265°
2026-05-05 03:03 47.76014 -122.01503 7826 ft 253 kts 265°
2026-05-05 03:03 47.75788 -122.04055 7569 ft 245 kts 265°
2026-05-05 03:03 47.75568 -122.06527 7312 ft 238 kts 265°
2026-05-05 03:03 47.75351 -122.08941 7060 ft 234 kts 265°
2026-05-05 03:04 47.75134 -122.11334 6827 ft 233 kts 266°
2026-05-05 03:04 47.75253 -122.13689 6583 ft 229 kts 290°
2026-05-05 03:04 47.75806 -122.15915 6372 ft 231 kts 294°
2026-05-05 03:04 47.76412 -122.18143 6134 ft 233 kts 295°
2026-05-05 03:05 47.77017 -122.20339 6013 ft 226 kts 295°
2026-05-05 03:05 47.77608 -122.22478 5995 ft 222 kts 295°
2026-05-05 03:05 47.78195 -122.24594 5994 ft 222 kts 295°
2026-05-05 03:05 47.78788 -122.26727 6004 ft 225 kts 295°
2026-05-05 03:06 47.79391 -122.28891 6002 ft 227 kts 295°
2026-05-05 03:06 47.80154 -122.30915 5975 ft 223 kts 317°
2026-05-05 03:06 47.81401 -122.32213 5988 ft 219 kts 319°
2026-05-05 03:06 47.82186 -122.34221 5517 ft 237 kts 283°
2026-05-05 03:07 47.82142 -122.36706 5212 ft 246 kts 256°
2026-05-05 03:07 47.81298 -122.38901 5019 ft 244 kts 224°
2026-05-05 03:07 47.79872 -122.40138 4899 ft 240 kts 195°
2026-05-05 03:07 47.78252 -122.40130 4881 ft 230 kts 162°
2026-05-05 03:08 47.76789 -122.39240 4847 ft 223 kts 155°
2026-05-05 03:08 47.75395 -122.38271 4805 ft 222 kts 154°
2026-05-05 03:08 47.73972 -122.37288 4582 ft 228 kts 154°
2026-05-05 03:08 47.72539 -122.36304 4505 ft 227 kts 155°
2026-05-05 03:09 47.71113 -122.35332 4482 ft 224 kts 155°
2026-05-05 03:09 47.69688 -122.34385 4409 ft 224 kts 155°
2026-05-05 03:09 47.68270 -122.33454 4237 ft 224 kts 157°
2026-05-05 03:09 47.66849 -122.32617 4212 ft 211 kts 156°
2026-05-05 03:10 47.65533 -122.31843 4176 ft 203 kts 164°
2026-05-05 03:10 47.64136 -122.31595 3833 ft 203 kts 181°
2026-05-05 03:10 47.62750 -122.31722 3606 ft 192 kts 185°
2026-05-05 03:10 47.61467 -122.31856 3484 ft 180 kts 182°
2026-05-05 03:11 47.60214 -122.31885 3238 ft 181 kts 179°
2026-05-05 03:11 47.58949 -122.31838 2921 ft 181 kts 177°
2026-05-05 03:11 47.57705 -122.31737 2644 ft 178 kts 176°
2026-05-05 03:11 47.56485 -122.31681 2443 ft 175 kts 178°
2026-05-05 03:12 47.55260 -122.31643 2174 ft 175 kts 179°
2026-05-05 03:12 47.54048 -122.31648 1922 ft 173 kts 181°
2026-05-05 03:12 47.52890 -122.31652 1842 ft 155 kts 180°
2026-05-05 03:12 47.51853 -122.31635 1594 ft 145 kts 184°
2026-05-05 03:13 47.50858 -122.31695 1311 ft 143 kts 185°
2026-05-05 03:13 47.49859 -122.31759 1093 ft 145 kts 183°
2026-05-05 03:13 47.48854 -122.31771 952 ft 144 kts 181°
2026-05-05 03:13 47.47849 -122.31763 746 ft 145 kts 184°
2026-05-05 03:14 47.46832 -122.31789 573 ft 147 kts 183°
2026-05-05 03:14 47.45830 -122.31794 422 ft 136 kts 180°
2026-05-05 03:14 47.44978 -122.31797 391 ft 104 kts 179°
2026-05-05 03:14 47.44459 -122.31806 376 ft 42 kts 180°
2026-05-05 03:15 47.44223 -122.31683 370 ft 31 kts 152°
2026-05-05 03:15 47.44202 -122.31665 369 ft 1 kts 149°
2026-05-05 03:15 47.44193 -122.31657 366 ft 3 kts 149°
2026-05-05 03:15 47.44134 -122.31607 365 ft 14 kts 150°
2026-05-05 03:16 47.44042 -122.31530 366 ft 16 kts 150°
2026-05-05 03:16 47.43938 -122.31442 369 ft 20 kts 150°
2026-05-05 03:16 47.43824 -122.31323 370 ft 20 kts 122°
2026-05-05 03:16 47.43808 -122.31125 370 ft 19 kts 90°
2026-05-05 03:17 47.43807 -122.30964 372 ft 8 kts 90°
2026-05-05 03:17 47.43807 -122.30955 372 ft 0 kts 90°
2026-05-05 03:17 47.43807 -122.30869 374 ft 14 kts 90°
2026-05-05 03:18 47.43807 -122.30728 375 ft 14 kts 90°
2026-05-05 03:18 47.43864 -122.30640 379 ft 15 kts
2026-05-05 03:18 47.43980 -122.30637 382 ft 19 kts
2026-05-05 03:18 47.44128 -122.30636 386 ft 22 kts
2026-05-05 03:19 47.44421 -122.30634 391 ft 20 kts 359°
2026-05-05 03:19 47.44561 -122.30630 392 ft 20 kts
2026-05-05 03:19 47.44697 -122.30629 401 ft 19 kts
2026-05-05 03:20 47.44829 -122.30630 405 ft 19 kts 359°
2026-05-05 03:20 47.44956 -122.30629 408 ft 18 kts
2026-05-05 03:20 47.45042 -122.30583 413 ft 11 kts 76°
2026-05-05 03:20 47.45045 -122.30468 413 ft 12 kts 90°
2026-05-05 03:21 47.45040 -122.30334 409 ft 16 kts 98°
2026-05-05 03:21 47.44981 -122.30177 410 ft 19 kts 129°
2026-05-05 03:21 47.44894 -122.30033 406 ft 19 kts 136°
2026-05-05 03:21 47.44775 -122.29996 407 ft 18 kts 198°
2026-05-05 03:22 47.44693 -122.30112 404 ft 12 kts 245°
2026-05-05 03:22 47.44700 -122.30229 403 ft 12 kts 302°
2026-05-05 03:22 47.44758 -122.30314 404 ft 12 kts 310°
2026-05-05 03:22 47.44817 -122.30428 408 ft 7 kts 305°
2026-05-05 03:23 47.44851 -122.30423 407 ft 5 kts 38°
2026-05-05 03:23 47.44864 -122.30407 407 ft 0 kts 42°
2026-05-05 03:23 47.44868 -122.30401 408 ft 0 kts 43°